Regional Weather Roundup
Issued by NWS

Home | Current Version | Previous Version | Text Only | Print | Product List | Glossary On
Versions: 1 2 3 4 5 6 7 8 9 10 11 12 13 14 15 16 17 18 19 20 21 22 23 24 25 26 27 28 29 30 31 32 33 34 35 36 37 38 39 40 41 42 43 44 45 46 47 48 49 50
000
ASUS43 KMKX 291124
RWRWI

WISCONSIN REGIONAL WEATHER ROUNDUP
NATIONAL WEATHER SERVICE MILWAUKEE/SULLIVAN WI
600 AM CDT FRI MAY 29 2015

NOTE: "FAIR" INDICATES FEW OR NO CLOUDS BELOW 12,000 FEET WITH NO
SIGNIFICANT WEATHER AND/OR OBSTRUCTIONS TO VISIBILITY.

WIZ001-002-006>008-014>016-023>028-291200-
NORTHWEST WISCONSIN

CITY           SKY/WX    TMP DP  RH WIND       PRES   REMARKS
SUPERIOR ARPT  PTCLDY    42  41  97 CALM      29.87S
ASHLAND        CLOUDY    61  58  90 S6        29.88F
HAYWARD        LGT RAIN  61  58  90 S9        29.90F
SIREN          RAIN      62  59  91 S7        29.88S
CUMBERLAND     HVY RAIN  59  57  94 S7        29.91R
RICE LAKE      DRIZZLE   61  58  91 SE6       29.91F
CHETEK         LGT RAIN  61  60  96 E5        29.90F
LADYSMITH      CLOUDY    62  57  83 SE5       29.93F
EAU CLAIRE     NOT AVBL
MENOMONIE      CLOUDY    63  61  94 CALM      29.90F
NEW RICHMOND   RAIN      61  60  98 SE7       29.88F
OSCEOLA        RAIN      62  62 100 SE6       29.90F
$$

WIZ003>005-009-010-017-018-291200-
NORTH CENTRAL WISCONSIN

CITY           SKY/WX    TMP DP  RH WIND       PRES   REMARKS
MANITOWISH WTR LGT RAIN  59  57  93 S3        29.95S
ARBOR VITAE    LGT RAIN  62  55  79 S6        29.95F
WOODRUFF       LGT RAIN  62  55  79 S6        29.95F
RHINELANDER    CLOUDY    63  54  72 S7        29.97F
EAGLE RIVER    LGT RAIN  62  52  69 S3        29.96S
LAND O LAKES   CLOUDY    63  53  70 S3        29.97S
PHILLIPS       CLOUDY    61  55  81 S7        29.93S
TOMAHAWK       RAIN      60  55  83 CALM      29.96F
MEDFORD        DRIZZLE   60  57  89 S12       29.95F
MERRILL        RAIN      62  58  86 CALM      29.97F
$$

WIZ029-030-035-036-043>047-291200-
CENTRAL WISCONSIN

CITY           SKY/WX    TMP DP  RH WIND       PRES   REMARKS
WAUSAU         CLOUDY    63  57  81 S8        29.96F
MOSINEE        CLOUDY    61  59  94 S7        29.99F
MARSHFIELD     CLOUDY    61  58  90 SE7       29.95F
STEVENS POINT  LGT RAIN  60  57  91 S3        29.99F
WAUPACA        RAIN      64  62  93 CALM      29.99F
WAUTOMA        NOT AVBL
WISC RAPIDS    CLOUDY    61  58  90 SE5       29.98F
CAMP DOUGLAS   NOT AVBL
$$

WIZ011>013-019>022-031-037>040-048>050-291200-
NORTHEAST WISCONSIN

CITY           SKY/WX    TMP DP  RH WIND       PRES   REMARKS
ANTIGO         DRIZZLE   59  55  87 S7        29.99F
SHAWANO        CLOUDY    64  56  73 CALM      29.99R
OCONTO         CLOUDY    64  57  78 S7        29.98F
STURGEON BAY   CLOUDY    61  52  72 S14       30.02F
GREEN BAY      CLOUDY    66  56  70 S6        30.00R
MANITOWOC      NOT AVBL
APPLETON       MOCLDY    64  55  72 MISG      30.00F
CLINTONVILLE   LGT RAIN  63  55  77 S5        29.99F
OSHKOSH        CLOUDY    65  57  75 S3        29.99F
$$

WIZ032>034-041-042-053>061-291200-
SOUTHWEST WISCONSIN

CITY           SKY/WX    TMP DP  RH WIND       PRES   REMARKS
LA CROSSE      MOCLDY    65  61  87 SE10      29.91F
SPARTA         MOCLDY    61  59  92 CALM      29.95S
VIROQUA        CLOUDY    61  61 100 SE10      29.96S
BOSCOBEL       CLOUDY    63  61  93 CALM      29.96F
PRAIRIE DU CHI CLOUDY    64  61  91 E6        29.95F
PLATTEVILLE    CLOUDY    63  62  97 E7        29.97F
$$

WIZ056-057-062-063-064-067-068-291200-
SOUTH CENTRAL WISCONSIN

CITY           SKY/WX    TMP DP  RH WIND       PRES   REMARKS
REEDSBURG      LGT RAIN  61  60  97 CALM      29.97F
BARABOO/DELLS  RAIN      61  59  92 S6        29.98F
LONE ROCK      NOT AVBL
MINERAL POINT  LGT RAIN  63  61  94 SE5       29.98F
MADISON        CLOUDY    63  60  90 W5        30.01R THUNDER
MIDDLETON      CLOUDY    63  62  97 NW3       30.01R
WATERTOWN      MOCLDY   N/A N/A N/A CALM      30.00F
MONROE         CLOUDY    63  59  88 E6        30.00R
JANESVILLE     CLOUDY    64  57  77 CALM      29.99S
$$

WIZ051-052-058>065-066-070>072-291200-
SOUTHEAST WISCONSIN

CITY           SKY/WX    TMP DP  RH WIND       PRES   REMARKS
MILWAUKEE      MOCLDY    63  55  75 S8        30.01S
WAUKESHA       PTCLDY    63  55  77 S5        30.02S
MILWAUKEE/TIMM MOCLDY    61  54  77 CALM      30.02S
RACINE         MOCLDY    61  55  81 S6        30.03S
BURLINGTON     PTCLDY    56  54  95 CALM      30.01S
KENOSHA        MOCLDY    64  57  78 S7        30.02S
FOND DU LAC    CLOUDY    66  57  72 SW3       30.00S
SHEBOYGAN      CLOUDY    59  53  80 S3        30.00F
WEST BEND      MOCLDY    61  54  77 CALM      30.00F
JUNEAU         CLOUDY    63  56  79 CALM      30.02S
$$

LSZ147-162-291200-
LAKE SUPERIOR

STATION/POSITION TIME  TEMP    WIND        PRES    WAVE
                       AIR SEA DIR/SP/G            HT/PER
                 (UTC) (F)     (DEG/KT/KT) (MB)    (FT/S)
W MID LAKE BUOY  0950   39 36  160/  2/  2   N/A     1/ 4
DEVILS ISLAND    1000   41        CALM       N/A
PORT WING        1040   43     120/  2/  4   N/A
SAXON HARBOR     0900   65     200/  2/  7   N/A
$$

LMZ867-665-643>646-291200-
LAKE MICHIGAN

STATION/POSITION TIME  TEMP    WIND        PRES    WAVE
                       AIR SEA DIR/SP/G            HT/PER
                 (UTC) (F)     (DEG/KT/KT) (MB)    (FT/S)
CHAMBERS ISLAND  1000   63     140/  7/ 15   N/A
N MID LAKE BUOY  0950   45 36  190/  6/  6   N/A     1/ 4
NORTHPORT PIER   1000   58     160/  6/ 11   N/A
SISTER BAY       1003   58     180/ 13/ 16   N/A
ALGOMA LAKESHORE 1038          160/  2/  3   N/A
KEWAUNEE LAKESHO 1000   51     170/  5/  7   N/A
SHEBOYGAN LAKESH 1000   55     170/ 10/ 11   N/A
PORT WASHINGTON  1040   51      80/  1/  2   N/A
ATWATER BUOY     1000   53     160/  8/ 10   N/A
MILWAUKEE LAKESH 1000   53     150/  9/ 10   N/A
S MID LAKE BUOY  0950   47 38  150/ 14/ 14   N/A     1
KENOSHA   LAKESH 1000   56     180/  5/ 10   N/A
$$

TC  - TEMPERATURE IN CELSIUS
VSB - VISIBILITY IN STATUTE MILES
WCI - WIND CHILL INDEX
HX  - HEAT INDEX




USA.gov is the U.S. government's official web portal to all federal, state and local government web resources and services.